Location: Aulnoy
(48.8410°N, 3.0967°E)
Time: 08:54:25
(UTC+00:00)

ATLAS 5 CENTAUR R/B - Pass Details

Date: 09 February 2023
Orbit: 460 x 1178 km, 63.3° (Epoch: 19 March)

Event Time Altitude Azimuth Distance (km) Brightness Sun altitude
Rises 19:50:14 0° 320° (NW) 2,968 5.8 -28.7°
Reaches altitude 10° 19:52:28 10° 328° (NNW) 2,157 4.8 -29.0°
Enters shadow 19:55:22 31° 355° (N) 1,310 3.3 -29.5°
